Flag for Canada Weather past 2 weeks in Whitby, Ontario, Canada

34 °F

Passing clouds.

Feels Like: 30 °F
Forecast: 41 / 50 °F
Wind: 5 mph from Southeast

Location: Toronto Buttonville

Current Time: Nov 25, 2015 at 10:37:35 PM

Latest Report: Nov 25, 2015 at 10:00 PM

Visibility: 12 mi

Pressure: 30.47 "Hg

Humidity: 93%

Dew point: 32 °F

Location of WhitbyLocation

Historic Weather in Whitby — Graph


Whitby temperature yesterday

Maximum temperature yesterday: 41 °F (at 1:00 PM)
Minimum temperature yesterday: 28 °F (at 11:00 PM)
Average temperature yesterday: 34 °F

Past Weeks' High & Low Weather Summary

High59 °F (Nov 15, 3:00 PM)100% (Nov 11, 1:00 AM)30.61 "Hg (Nov 11, 1:00 AM)
Low19 °F (Nov 23, 7:00 AM)37% (Nov 17, 2:00 PM)29.30 "Hg (Nov 12, 1:00 PM)
Average41 °F76%30.06 "Hg
* Reported Nov 10 9:00 PM — Nov 25 9:00 PM, Whitby, Weather by CustomWeather, © 2015

Note: Actual official high and low records may vary slightly from our data, if they occured in-between our weather recording intervals... More about our weather records


Whitby weather history for previous 24 hours

Time TempWeatherWind HumidityBarometerVisibility
9:00 PM
Wed, Nov 25
36 °FPassing clouds.2 mph93%30.48 "Hg12 mi
8:00 PM37 °FPassing clouds.2 mph87%30.49 "Hg15 mi
7:00 PM39 °FPassing clouds.2 mph81%30.51 "Hg15 mi
6:00 PM41 °FPassing clouds.8 mph76%30.50 "Hg15 mi
5:00 PM41 °FPassing clouds.7 mph76%30.51 "Hg15 mi
4:00 PM43 °FScattered clouds.12 mph71%30.50 "Hg15 mi
3:00 PM43 °FPassing clouds.14 mph76%30.52 "Hg15 mi
2:00 PM43 °FPassing clouds.13 mph76%30.53 "Hg15 mi
1:00 PM43 °FPassing clouds.13 mph76%30.55 "Hg15 mi
12:00 PM41 °FScattered clouds.10 mph87%30.57 "Hg12 mi
11:00 AM37 °FFog.9 mph100%30.60 "Hg3 mi
10:48 AM37 °FFog.9 mph93%30.60 "Hg2 mi
10:00 AM34 °FFog.8 mph100%30.61 "Hg0 mi
9:04 AM32 °FFog.6 mph100%30.60 "Hg0 mi
8:00 AM30 °FIce fog.No wind100%30.59 "Hg2 mi
7:00 AM28 °FIce fog.3 mph100%30.58 "Hg1 mi
6:51 AM28 °FIce fog.No wind100%30.58 "Hg1 mi
6:00 AM28 °FMostly cloudy.2 mph93%30.56 "Hg12 mi
5:00 AM27 °FMostly cloudy.3 mph93%30.56 "Hg12 mi
4:00 AM25 °FClear.2 mph93%30.54 "Hg15 mi
3:00 AM25 °FClear.No wind93%30.53 "Hg15 mi
2:00 AM27 °FClear.No wind93%30.50 "Hg15 mi
1:00 AM27 °FClear.No wind93%30.49 "Hg15 mi
12:00 AM28 °FClear.2 mph93%30.48 "Hg15 mi
11:00 PM
Tue, Nov 24
28 °FPassing clouds.No wind93%30.47 "Hg15 mi
10:00 PM32 °FPassing clouds.No wind87%30.47 "Hg15 mi
Weather by CustomWeather, © 2015

See weather overviewHow to use our weather pages